Hourly Weather Bolshie Mozhary

Today, 15 June, Tuesday

Time Temperature Precipitation Wind Pressure Humidity
00:00 +19°C° 0.4 mm 1 mps 750 mmHg 88%
01:00 +19°C° 0 mm 1 mps 750 mmHg 89%
02:00 +19°C° 0 mm 1 mps 750 mmHg 89%
03:00 +18°C° 0 mm 1 mps 750 mmHg 90%
04:00 +19°C° 0 mm 1 mps 750 mmHg 90%
05:00 +20°C° 0 mm 1 mps 750 mmHg 89%
06:00 +20°C° 0 mm 1 mps 750 mmHg 89%
07:00 +21°C° 0.3 mm 1 mps 750 mmHg 85%
08:00 +23°C° 0.3 mm 1 mps 750 mmHg 82%
09:00 +24°C° 0 mm 1 mps 750 mmHg 78%
10:00 +25°C° 0.3 mm 1 mps 750 mmHg 72%
11:00 +26°C° 0.3 mm 1 mps 749 mmHg 67%
12:00 +26°C° 0.3 mm 2 mps 749 mmHg 61%
13:00 +27°C° 0.1 mm 2 mps 749 mmHg 60%
14:00 +27°C° 0.1 mm 2 mps 748 mmHg 60%
15:00 +27°C° 0.1 mm 2 mps 748 mmHg 59%
16:00 +26°C° 0.7 mm 1 mps 748 mmHg 66%
17:00 +26°C° 0.7 mm 1 mps 748 mmHg 72%
18:00 +25°C° 0.7 mm 1 mps 747 mmHg 78%
19:00 +23°C° 0.4 mm 1 mps 747 mmHg 82%
20:00 +22°C° 0.4 mm 1 mps 747 mmHg 85%
21:00 +20°C° 0.4 mm 1 mps 747 mmHg 88%
22:00 +20°C° 0 mm 1 mps 747 mmHg 89%
23:00 +17°C° 0 mm 0 mps 747 mmHg 90%

Tomorrow, 16 June, Wednesday

Time Temperature Precipitation Wind Pressure Humidity
00:00 +17°C° 0 mm 0 mps 746 mmHg 91%
01:00 +17°C° 0 mm 0 mps 746 mmHg 91%
02:00 +17°C° 0 mm 0 mps 746 mmHg 91%
03:00 +16°C° 0 mm 0 mps 746 mmHg 92%
04:00 +19°C° 0 mm 1 mps 746 mmHg 91%
05:00 +19°C° 0 mm 1 mps 746 mmHg 91%
06:00 +20°C° 0 mm 1 mps 746 mmHg 91%
07:00 +20°C° 0 mm 2 mps 746 mmHg 86%
08:00 +23°C° 0 mm 2 mps 747 mmHg 82%
09:00 +24°C° 0 mm 2 mps 747 mmHg 77%
10:00 +25°C° 0.5 mm 3 mps 747 mmHg 73%
11:00 +26°C° 0.5 mm 3 mps 747 mmHg 69%
12:00 +27°C° 0.5 mm 4 mps 747 mmHg 65%
13:00 +26°C° 0.6 mm 4 mps 747 mmHg 67%
14:00 +26°C° 0.6 mm 4 mps 747 mmHg 70%
15:00 +26°C° 0.6 mm 4 mps 747 mmHg 72%
16:00 +25°C° 0.6 mm 4 mps 748 mmHg 75%
17:00 +25°C° 0.6 mm 4 mps 748 mmHg 78%
18:00 +23°C° 0.6 mm 4 mps 749 mmHg 81%
19:00 +22°C° 0.1 mm 4 mps 749 mmHg 83%
20:00 +20°C° 0.1 mm 3 mps 750 mmHg 86%
21:00 +19°C° 0.1 mm 3 mps 750 mmHg 89%
22:00 +18°C° 0 mm 3 mps 751 mmHg 91%
23:00 +18°C° 0 mm 3 mps 751 mmHg 92%

Day after tomorrow, 17 June, Thursday

Time Temperature Precipitation Wind Pressure Humidity
00:00 +17°C° 0 mm 3 mps 752 mmHg 93%
01:00 +16°C° 0 mm 3 mps 752 mmHg 91%
02:00 +14°C° 0 mm 3 mps 753 mmHg 89%
03:00 +13°C° 0 mm 3 mps 753 mmHg 86%
04:00 +13°C° 0 mm 3 mps 753 mmHg 85%
05:00 +13°C° 0 mm 3 mps 754 mmHg 83%
06:00 +13°C° 0 mm 3 mps 754 mmHg 81%
07:00 +16°C° 0 mm 3 mps 755 mmHg 75%
08:00 +18°C° 0 mm 4 mps 755 mmHg 69%
09:00 +19°C° 0 mm 4 mps 755 mmHg 63%
10:00 +20°C° 0 mm 4 mps 756 mmHg 59%
11:00 +21°C° 0 mm 4 mps 756 mmHg 55%
12:00 +22°C° 0 mm 4 mps 756 mmHg 51%
13:00 +23°C° 0 mm 4 mps 756 mmHg 50%
14:00 +23°C° 0 mm 4 mps 756 mmHg 50%
15:00 +23°C° 0 mm 4 mps 756 mmHg 49%
16:00 +23°C° 0 mm 4 mps 756 mmHg 54%
17:00 +22°C° 0 mm 3 mps 756 mmHg 58%
18:00 +22°C° 0 mm 3 mps 756 mmHg 63%
19:00 +20°C° 0 mm 2 mps 757 mmHg 66%
20:00 +18°C° 0 mm 2 mps 757 mmHg 70%
21:00 +16°C° 0 mm 2 mps 758 mmHg 74%
22:00 +16°C° 0 mm 2 mps 758 mmHg 74%
23:00 +15°C° 0 mm 2 mps 758 mmHg 75%

18 June, Friday

Time Temperature Precipitation Wind Pressure Humidity
00:00 +15°C° 0 mm 2 mps 758 mmHg 75%
01:00 +14°C° 0 mm 2 mps 758 mmHg 76%
02:00 +14°C° 0 mm 2 mps 758 mmHg 77%
03:00 +13°C° 0 mm 2 mps 759 mmHg 77%
04:00 +14°C° 0 mm 2 mps 759 mmHg 78%
05:00 +15°C° 0 mm 2 mps 759 mmHg 79%
06:00 +15°C° 0 mm 2 mps 760 mmHg 80%
07:00 +17°C° 0 mm 2 mps 760 mmHg 74%
08:00 +19°C° 0 mm 2 mps 760 mmHg 68%
09:00 +20°C° 0 mm 2 mps 760 mmHg 63%
10:00 +21°C° 0 mm 2 mps 760 mmHg 59%
11:00 +23°C° 0 mm 2 mps 760 mmHg 55%
12:00 +24°C° 0 mm 3 mps 760 mmHg 50%
13:00 +25°C° 0 mm 2 mps 760 mmHg 50%
14:00 +25°C° 0 mm 2 mps 760 mmHg 50%
15:00 +25°C° 0 mm 2 mps 760 mmHg 49%
16:00 +25°C° 0 mm 2 mps 760 mmHg 54%
17:00 +25°C° 0 mm 2 mps 760 mmHg 58%
18:00 +25°C° 0 mm 1 mps 759 mmHg 63%
19:00 +23°C° 0 mm 1 mps 760 mmHg 67%
20:00 +21°C° 0 mm 1 mps 760 mmHg 72%
21:00 +19°C° 0 mm 1 mps 760 mmHg 76%
22:00 +18°C° 0 mm 1 mps 760 mmHg 78%
23:00 +18°C° 0 mm 1 mps 760 mmHg 80%

19 June, Saturday

Time Temperature Precipitation Wind Pressure Humidity
00:00 +16°C° 0 mm 1 mps 760 mmHg 82%
01:00 +16°C° 0 mm 1 mps 760 mmHg 83%
02:00 +15°C° 0 mm 1 mps 760 mmHg 84%
03:00 +15°C° 0 mm 1 mps 761 mmHg 85%
04:00 +16°C° 0 mm 1 mps 761 mmHg 83%
05:00 +18°C° 0 mm 1 mps 761 mmHg 81%
06:00 +19°C° 0 mm 1 mps 761 mmHg 79%
07:00 +20°C° 0 mm 1 mps 761 mmHg 74%
08:00 +22°C° 0 mm 1 mps 761 mmHg 70%
09:00 +23°C° 0 mm 1 mps 761 mmHg 65%
10:00 +24°C° 0 mm 1 mps 761 mmHg 61%
11:00 +25°C° 0 mm 1 mps 761 mmHg 58%
12:00 +26°C° 0 mm 2 mps 761 mmHg 55%
13:00 +26°C° 0 mm 2 mps 760 mmHg 54%
14:00 +26°C° 0 mm 2 mps 760 mmHg 53%
15:00 +27°C° 0 mm 2 mps 760 mmHg 52%
16:00 +26°C° 0 mm 2 mps 759 mmHg 56%
17:00 +26°C° 0 mm 2 mps 759 mmHg 60%
18:00 +26°C° 0 mm 1 mps 759 mmHg 64%
19:00 +24°C° 0 mm 1 mps 759 mmHg 70%
20:00 +22°C° 0 mm 1 mps 759 mmHg 75%
21:00 +20°C° 0 mm 1 mps 759 mmHg 80%
22:00 +20°C° 0 mm 1 mps 759 mmHg 81%
23:00 +19°C° 0 mm 1 mps 759 mmHg 82%

20 June, Sunday

Time Temperature Precipitation Wind Pressure Humidity
00:00 +19°C° 0 mm 1 mps 759 mmHg 84%
01:00 +18°C° 0 mm 1 mps 759 mmHg 85%
02:00 +18°C° 0 mm 1 mps 759 mmHg 86%
03:00 +16°C° 0 mm 1 mps 759 mmHg 87%
04:00 +18°C° 0 mm 1 mps 759 mmHg 85%
05:00 +19°C° 0 mm 1 mps 759 mmHg 84%
06:00 +20°C° 0 mm 1 mps 759 mmHg 82%
07:00 +21°C° 0 mm 1 mps 759 mmHg 77%
08:00 +23°C° 0 mm 1 mps 759 mmHg 72%
09:00 +24°C° 0 mm 1 mps 759 mmHg 67%
10:00 +25°C° 0 mm 1 mps 759 mmHg 63%
11:00 +26°C° 0 mm 1 mps 759 mmHg 59%
12:00 +27°C° 0 mm 1 mps 759 mmHg 55%
13:00 +28°C° 0 mm 1 mps 758 mmHg 53%
14:00 +28°C° 0 mm 1 mps 758 mmHg 52%
15:00 +28°C° 0 mm 1 mps 758 mmHg 51%
16:00 +28°C° 0 mm 1 mps 758 mmHg 54%
17:00 +28°C° 0 mm 1 mps 757 mmHg 58%
18:00 +28°C° 0 mm 1 mps 757 mmHg 61%
19:00 +26°C° 0 mm 1 mps 757 mmHg 66%
20:00 +22°C° 0 mm 0 mps 757 mmHg 72%
21:00 +20°C° 0 mm 0 mps 757 mmHg 77%
22:00 +19°C° 0 mm 0 mps 757 mmHg 79%
23:00 +19°C° 0 mm 0 mps 757 mmHg 80%
Show more